Retour au catalogue

STARLINK-35357

ActifCommunicationsSSO
NORAD 65799·PAYLOAD·🇺🇸 United States

Lancé Sep 26, 2025 depuis Vandenberg Space Force Base

Loading…

Prochains Passages (prochaines 24 heures)

TLE

FraisSource: CelesTrak SupGP

Époque: Sep 14, 2026, 22:31 UTC

1 65799C 25218J   26257.93868056 -.00049202  00000+0 -15273-2 0  2576
2 65799  97.2840 115.3232 0001249 104.7946   9.0979 15.33464256    16

Suivez STARLINK-35357 en temps réel avec AllMySat

Download on the App Store